Location: Sevilla
(37.3933°N, 5.9839°W)
Time: 22:52:27
(UTC+02:00)

Altair - Visible Passes

Search period start: 23 June 2024 00:00
Search period end: 03 July 2024 00:00
Orbit: 1502 x 1682 km, 47.2° (Epoch: 22 June)

Date Brightness Start Highest point End Pass type
(mag) Time Alt. Az. Time Alt. Az. Time Alt. Az.
23 Jun 9.1 01:02:18 11° E 01:02:18 11° E 01:03:03 10° E visible
23 Jun 7.4 03:00:16 55° S 03:01:46 61° SE 03:10:56 10° ENE visible
23 Jun 7.9 04:58:14 13° W 05:06:36 60° NNW 05:16:02 10° ENE visible
24 Jun 7.4 02:35:48 54° SSE 02:36:38 56° SE 02:45:40 10° ENE visible
24 Jun 7.8 04:33:45 16° W 04:41:20 62° NNW 04:50:45 10° ENE visible
25 Jun 7.5 02:11:14 51° SE 02:11:30 52° SE 02:20:23 10° ENE visible
25 Jun 7.7 04:09:11 20° WSW 04:16:04 65° NNW 04:25:29 10° ENE visible
25 Jun 8.5 06:13:15 10° WNW 06:22:08 46° N 06:31:22 10° ENE visible
26 Jun 7.6 01:46:33 47° SE 01:46:33 47° SE 01:55:05 10° ENE visible
26 Jun 7.6 03:44:30 23° WSW 03:50:49 68° NNW 04:00:14 10° ENE visible
26 Jun 8.4 05:47:56 10° WNW 05:56:48 46° N 06:05:59 10° ENE visible
27 Jun 7.7 01:21:43 43° SE 01:21:43 43° SE 01:29:47 10° ENE visible
27 Jun 7.5 03:19:38 25° WSW 03:25:34 72° NNW 03:34:58 10° ENE visible
27 Jun 8.4 05:22:37 10° WNW 05:31:29 46° N 05:40:37 10° ENE visible
28 Jun 7.8 00:56:38 39° SE 00:56:38 39° SE 01:04:28 10° ENE visible
28 Jun 7.5 02:54:31 26° WSW 03:00:21 76° NNW 03:09:44 10° ENE visible
28 Jun 8.3 04:57:18 10° WNW 05:06:09 47° N 05:15:16 10° ENE visible
29 Jun 7.8 00:31:07 36° SE 00:31:07 36° SE 00:39:07 10° ENE visible
29 Jun 7.4 02:28:57 24° WSW 02:35:07 80° NNW 02:44:30 10° ENE visible
29 Jun 8.3 04:31:59 10° W 04:40:49 47° N 04:49:55 10° ENE visible
29 Jun 8.3 06:37:52 10° WNW 06:47:04 56° NNE 06:56:35 10° E visible
30 Jun 7.9 00:04:35 31° SE 00:05:57 32° SE 00:13:46 10° ENE visible
30 Jun 7.3 02:02:15 16° WSW 02:09:54 85° NNW 02:19:15 10° ENE visible
30 Jun 8.3 04:06:39 10° W 04:15:30 48° N 04:24:35 10° ENE visible
30 Jun 8.3 06:12:38 10° WNW 06:21:46 54° NNE 06:31:13 10° E visible
30 Jun 8.0 23:33:20 10° S 23:40:52 29° SE 23:48:22 10° ENE visible
01 Jul 7.3 01:35:30 10° SW 01:44:41 89° NW 01:54:01 10° ENE visible
01 Jul 8.2 03:41:21 10° W 03:50:11 49° N 03:59:16 10° ENE visible
01 Jul 8.3 05:47:24 10° WNW 05:56:27 53° NNE 06:05:49 10° E visible
01 Jul 8.1 23:08:35 10° S 23:15:46 26° SE 23:22:56 10° ENE visible
02 Jul 7.3 01:10:19 10° SW 01:19:31 86° SE 01:28:48 10° ENE visible
02 Jul 8.2 03:16:01 10° W 03:24:53 50° NNW 03:33:57 10° ENE visible
02 Jul 8.3 05:22:09 10° WNW 05:31:09 51° NNE 05:40:26 10° E visible
02 Jul 8.2 22:43:54 10° S 22:50:42 24° SE 22:57:28 10° ENE visible
